Find Local Weather

World > North America > United States > Nevada

Stead, Nevada Regional Weather

Lat: 39.64N, Lon: 119.88W
Wx Zone: NVZ003
Feedback

Stead, NV Regional Weather

Expires:201905232000;;341471
ASUS45 KREV 231910
RWRNV 
NEVADA REGIONAL WEATHER ROUNDUP
NATIONAL WEATHER SERVICE RENO NV
1200 PM PDT THU MAY 23 2019

NOTE: "FAIR" INDICATES FEW OR NO CLOUDS BELOW 12,000 FEET WITH NO
SIGNIFICANT WEATHER AND/OR OBSTRUCTIONS TO VISIBILITY.


NVZ001-003-004-232000-
WESTERN NEVADA
  
CITY           SKY/WX    TMP DP  RH WIND       PRES   REMARKS
RENO           CLOUDY    54  39  57 N10       29.86R                  
CARSON CITY    CLOUDY    50  43  76 E15       29.86R                  
MINDEN         FAIR      54  41  62 N15G22    29.86S                  
SLIDE MTN        N/A     34  34 100 MISG        N/A                   
FALLON         CLOUDY    56  45  66 NE9       29.83R                  
LOVELOCK       PTSUNNY   54  42  64 N14G22    29.84R                  
HAWTHORNE      MOSUNNY   54  43  66 N16       29.84S                  
$$


SKY/WX - Weather  TMP - Temperature  DP - Dew Point  RH - Relative Humidity
WIND - Wind Direction/Speed PRES - Barometric Pressure VSB - Visibility
WCI - Wind Chill Index E13G22 Wind - East Wind 13 mph/Gusts of 22 mph